Wind_Speed
56 57 57 59 62 63 63 64 66 68 68 69 73 82 92 94 93 92 91 86 84 86 89 94 99 106 111 114 93 73 71 74 73 63 66 70 78 84 85 89 102 107 105
58 59 59 61 63 63 64 65 67 68 70 72 76 83 91 94 93 93 90 85 85 88 91 98 104 107 111 90 70 69 72 72 70 60 56 59 65 70 76 85 98 105 104
60 61 62 64 63 61 62 66 67 69 72 76 79 84 89 91 91 91 89 87 88 90 94 101 106 109 96 68 65 66 65 61 57 54 51 56 60 64 72 81 95 103 105
61 61 62 62 61 61 64 68 70 73 76 79 83 87 88 89 90 89 89 87 88 91 97 103 106 100 74 60 56 53 50 46 45 48 50 55 58 61 68 75 93 103 106
61 61 62 60 59 64 69 72 75 80 83 85 87 86 85 86 87 88 88 87 89 92 97 104 98 79 60 53 45 40 39 36 36 42 47 54 55 56 60 70 88 102 105
60 60 60 59 63 68 72 77 80 82 84 86 86 83 82 83 85 87 88 87 90 93 97 100 77 61 52 47 41 36 32 28 31 37 43 47 49 53 57 69 83 97 99
59 58 59 64 67 71 75 78 79 81 83 84 85 83 84 85 86 87 88 87 90 94 99 86 58 48 45 45 43 41 37 32 33 37 41 44 47 53 59 68 83 99 92
60 60 64 68 72 74 75 75 76 79 82 84 84 84 84 86 87 87 88 88 91 95 93 71 51 45 48 51 51 49 50 48 46 47 49 48 50 58 62 70 87 100 91
64 67 69 70 71 71 72 73 73 76 79 81 82 83 85 85 86 86 87 89 93 95 84 62 50 48 50 53 55 54 52 54 55 54 54 53 55 63 64 73 90 89 87
72 70 69 68 67 68 68 69 71 74 76 78 81 81 83 83 84 86 87 92 95 90 75 54 51 52 52 51 51 51 46 47 53 56 60 59 58 65 68 83 100 93 80
71 68 66 66 64 66 67 68 68 70 72 75 77 79 82 82 83 85 88 93 93 82 66 50 49 52 49 46 44 42 39 41 47 53 57 60 62 69 76 95 96 89 86
72 68 66 66 65 65 67 68 70 70 70 72 74 76 79 80 81 83 86 90 83 72 58 47 46 44 43 42 39 36 33 35 42 51 53 56 64 72 84 99 95 97 87
71 66 66 69 63 61 65 68 70 70 69 71 74 74 77 79 80 82 84 85 71 62 51 44 43 41 36 31 26 24 26 31 36 43 49 59 68 74 88 102 100 89 84
68 66 65 68 62 60 65 67 68 67 68 71 72 73 75 78 79 81 83 80 61 53 44 40 38 32 27 21 17 18 21 26 32 38 48 61 70 76 87 91 91 82 83
69 68 67 64 60 62 63 63 65 66 67 68 70 71 72 75 77 80 83 73 53 44 39 37 33 26 22 16 14 14 16 21 27 34 47 59 66 75 89 93 91 79 79
66 64 60 56 55 58 59 58 60 62 64 65 68 70 72 76 78 80 80 63 47 37 34 34 29 22 18 13 12 12 13 17 22 30 47 60 65 76 91 88 79 80 85
62 60 61 59 55 56 55 53 53 55 58 59 62 66 72 75 77 79 74 54 43 35 31 30 26 18 12 10 11 13 13 14 19 27 42 55 69 87 99 87 83 83 83
64 57 58 58 54 52 50 48 47 47 53 58 62 67 72 74 76 73 63 47 39 38 32 28 24 16 10 8 9 12 15 20 23 28 39 54 72 90 97 79 82 88 87
62 55 54 53 49 46 43 41 40 43 51 58 62 68 72 73 73 63 51 43 37 34 29 24 21 16 12 9 6 6 12 21 28 31 36 50 72 92 92 77 76 86 90
59 54 50 46 43 39 36 35 39 44 51 56 62 65 68 69 65 51 40 38 34 31 26 21 19 17 14 12 8 4 12 20 28 31 38 54 78 95 88 75 77 85 88
55 49 43 38 34 32 32 35 39 44 51 57 59 61 66 65 58 44 35 34 30 28 24 20 17 15 15 14 10 5 13 22 28 31 39 56 75 85 78 70 70 75 76
46 42 36 31 29 30 31 35 40 46 52 54 57 62 65 60 51 39 32 32 29 26 23 18 15 13 15 16 13 7 12 23 29 32 40 52 66 77 72 68 71 72 73
38 34 28 27 27 28 32 36 41 46 51 54 57 61 61 54 46 37 31 29 27 26 23 18 15 13 13 16 16 13 9 15 24 32 39 51 66 72 70 75 78 74 72
35 30 26 24 25 30 33 36 41 47 51 52 54 56 56 51 44 36 30 28 26 24 22 19 16 12 13 15 18 18 13 9 18 29 39 51 64 71 71 73 75 73 73
32 27 22 23 27 30 32 37 42 46 48 50 52 53 53 51 43 35 29 26 25 23 21 19 17 13 12 13 16 19 19 15 17 26 36 44 54 61 67 71 70 67 68
26 21 22 25 28 30 35 40 43 44 46 49 50 50 52 48 40 34 28 26 24 23 21 18 17 15 12 12 15 19 22 21 20 25 35 42 50 57 65 70 70 69 67
Wind_Direction
282 284 285 284 282 282 283 284 285 289 293 296 299 297 297 299 301 302 301 300 298 299 302 303 304 303 304 304 298 289 284 283 278 262 244 239 238 238 236 229 223 220 217
282 284 284 282 281 281 284 287 290 292 294 296 297 297 299 300 302 303 303 300 298 301 305 306 306 306 307 302 293 289 287 282 276 262 241 232 231 232 231 223 216 214 212
283 282 280 278 280 284 288 291 293 295 295 295 296 298 300 303 304 305 304 303 301 303 306 307 307 307 307 296 292 292 289 281 272 254 232 223 222 223 226 218 210 208 208
281 280 277 277 282 288 291 294 296 297 297 296 296 299 302 305 306 306 305 304 304 307 308 307 308 308 301 292 292 293 291 282 265 244 222 215 213 217 224 218 209 202 204
281 280 279 281 288 291 292 294 296 297 296 296 297 301 304 306 306 305 305 306 307 309 309 310 309 302 293 288 288 291 291 280 256 234 217 209 208 214 222 217 208 200 200
279 278 280 285 293 295 295 295 295 295 296 298 299 301 303 306 307 305 305 308 310 311 312 313 305 293 286 281 281 284 287 273 246 230 218 213 212 215 221 215 205 199 196
278 279 286 292 292 292 293 294 295 296 298 300 302 304 305 306 307 307 307 310 313 314 315 314 297 284 281 279 278 277 270 262 250 238 224 217 214 215 219 212 201 194 191
278 283 289 290 291 293 294 296 298 299 301 303 306 307 307 308 309 309 310 314 317 318 318 311 294 280 281 281 283 279 264 253 250 241 231 222 218 213 216 209 195 188 191
282 286 287 288 290 292 294 295 298 301 304 306 307 307 307 308 310 311 313 316 319 320 318 307 293 283 282 281 279 278 269 253 248 236 227 220 218 209 211 201 190 187 191
286 286 287 288 288 290 293 295 298 301 304 305 307 308 308 310 313 313 316 319 322 322 318 304 296 291 287 287 282 276 269 251 244 232 226 221 217 208 204 193 188 188 188
283 287 286 285 286 289 292 294 299 301 303 305 307 307 309 312 313 316 320 323 325 322 317 305 299 297 290 286 282 276 265 250 237 225 223 219 212 206 199 189 189 188 189
283 284 284 284 286 288 292 297 299 301 303 305 307 308 311 312 314 318 324 327 326 319 315 309 307 303 295 288 281 273 260 246 235 226 223 215 207 203 196 187 187 186 185
283 283 284 283 284 289 294 296 298 299 301 304 307 309 311 312 316 322 327 331 325 316 315 316 316 312 304 295 279 261 253 246 237 230 221 210 204 202 199 192 188 187 181
278 278 280 280 284 292 292 292 294 296 300 303 306 308 310 313 318 323 331 333 324 315 317 318 317 313 307 296 272 261 258 247 240 229 215 206 203 204 204 198 190 186 180
280 279 285 286 284 289 291 293 295 298 301 303 305 308 312 317 322 328 334 334 323 316 316 316 316 310 307 295 270 257 253 249 242 227 209 201 200 204 202 191 190 189 181
288 285 284 284 286 288 289 291 295 298 301 302 305 311 316 321 328 333 336 332 321 321 315 314 316 308 304 292 272 263 254 245 236 217 201 196 201 206 201 193 187 183 181
286 287 285 283 283 285 287 289 292 297 301 304 310 315 320 327 333 336 336 329 319 320 317 314 314 304 291 285 281 273 262 243 225 208 198 198 203 202 194 191 185 180 182
284 286 286 282 281 284 287 290 293 299 305 309 315 321 325 330 335 336 333 323 320 324 319 312 309 300 281 275 281 267 241 224 211 201 198 202 206 201 193 190 182 181 184
277 281 284 279 278 280 283 288 294 300 304 311 318 324 329 334 336 334 327 320 316 319 316 309 302 293 278 268 267 233 210 213 214 210 208 207 205 198 191 187 180 178 181
272 272 273 272 275 278 283 289 296 302 308 314 320 327 331 335 336 329 319 316 312 316 316 309 297 286 278 275 280 215 189 204 210 209 206 205 200 193 191 187 183 183 183
269 266 265 266 269 276 283 293 301 308 314 319 324 332 335 336 335 327 315 315 310 315 316 309 295 280 273 269 273 231 191 199 194 189 195 198 198 196 195 192 188 186 187
264 261 262 266 272 278 288 299 308 316 320 324 329 335 337 336 333 324 315 317 312 312 319 311 295 275 263 254 248 228 184 200 197 188 189 195 200 199 199 194 188 187 189
254 254 257 264 271 284 296 308 317 323 326 327 332 336 338 335 330 322 314 316 316 310 318 319 305 281 260 249 239 236 202 191 197 189 186 192 195 195 194 189 188 191 195
252 253 257 267 281 294 304 314 320 323 325 327 331 335 336 334 329 320 314 316 318 310 312 319 312 291 265 247 236 235 237 210 205 196 186 190 196 198 197 195 197 201 203
249 251 262 278 290 299 309 316 320 322 324 326 329 332 334 332 326 319 314 316 319 316 309 314 315 304 278 255 237 230 234 231 214 206 193 191 197 203 205 206 206 206 206
246 257 272 282 291 301 309 314 315 318 322 324 328 331 332 329 322 316 313 314 317 318 314 308 310 309 292 263 242 231 226 229 223 217 207 198 198 201 203 204 205 207 207
Height
5616 5612 5607 5604 5600 5595 5589 5584 5577 5570 5564 5556 5549 5538 5526 5515 5504 5491 5476 5466 5457 5446 5432 5419 5408 5388 5368 5345 5324 5313 5306 5298 5290 5296 5304 5317 5328 5343 5359 5376 5397 5418 5445
5599 5596 5591 5586 5582 5578 5573 5568 5562 5554 5546 5538 5529 5517 5505 5494 5482 5468 5455 5444 5434 5422 5409 5393 5376 5356 5336 5314 5301 5294 5286 5278 5271 5270 5280 5291 5303 5319 5331 5344 5365 5392 5422
5583 5579 5574 5569 5565 5561 5556 5551 5544 5536 5526 5517 5509 5497 5485 5475 5463 5448 5435 5425 5413 5400 5386 5368 5348 5326 5308 5294 5283 5273 5263 5256 5254 5252 5262 5273 5287 5299 5307 5320 5342 5368 5397
5567 5562 5558 5553 5549 5544 5540 5534 5526 5517 5507 5497 5488 5478 5467 5457 5444 5431 5417 5406 5393 5378 5361 5341 5321 5298 5284 5275 5267 5258 5249 5243 5242 5241 5251 5262 5274 5283 5291 5305 5323 5348 5376
5550 5546 5542 5537 5532 5527 5521 5514 5505 5497 5488 5479 5469 5459 5448 5437 5424 5409 5397 5386 5374 5359 5340 5316 5293 5275 5266 5259 5254 5248 5242 5237 5237 5240 5248 5256 5267 5276 5285 5296 5312 5334 5361
5533 5529 5526 5520 5515 5509 5502 5494 5486 5478 5469 5460 5452 5441 5428 5416 5403 5388 5375 5365 5351 5338 5320 5295 5271 5258 5253 5248 5244 5241 5237 5235 5237 5242 5248 5255 5265 5272 5275 5287 5305 5327 5355
5516 5512 5508 5503 5497 5490 5483 5475 5467 5460 5452 5443 5433 5422 5409 5396 5384 5369 5356 5343 5329 5314 5293 5270 5254 5245 5241 5238 5235 5232 5230 5231 5235 5239 5244 5251 5257 5264 5268 5278 5296 5321 5346
5499 5495 5491 5486 5480 5473 5466 5458 5451 5444 5435 5426 5415 5403 5392 5379 5365 5349 5334 5320 5306 5290 5267 5247 5238 5233 5228 5224 5221 5219 5218 5219 5223 5228 5234 5240 5246 5253 5259 5270 5285 5310 5334
5483 5478 5473 5468 5461 5455 5448 5442 5434 5425 5417 5409 5398 5386 5373 5360 5346 5329 5314 5300 5285 5269 5247 5230 5222 5218 5212 5205 5200 5198 5197 5201 5204 5210 5218 5225 5232 5240 5248 5261 5280 5302 5323
5465 5459 5454 5447 5442 5437 5430 5422 5413 5405 5399 5391 5379 5368 5354 5344 5328 5311 5295 5281 5266 5247 5229 5215 5207 5200 5193 5187 5180 5177 5176 5180 5184 5191 5200 5210 5219 5229 5239 5252 5271 5293 5312
5444 5438 5433 5428 5423 5419 5413 5402 5393 5386 5380 5372 5362 5352 5338 5327 5313 5297 5279 5259 5237 5222 5210 5200 5192 5182 5175 5170 5164 5160 5161 5162 5166 5175 5184 5194 5206 5219 5231 5246 5263 5284 5310
5426 5421 5416 5410 5404 5400 5395 5387 5378 5370 5362 5355 5346 5337 5324 5312 5299 5283 5265 5242 5219 5206 5196 5187 5179 5169 5162 5156 5151 5146 5146 5149 5155 5163 5173 5184 5199 5213 5225 5241 5257 5280 5301
5408 5404 5399 5395 5389 5384 5378 5371 5363 5354 5347 5339 5330 5321 5310 5296 5285 5270 5253 5230 5210 5196 5186 5176 5168 5159 5149 5143 5139 5138 5139 5141 5146 5154 5164 5177 5194 5208 5217 5229 5250 5271 5287
5389 5386 5381 5376 5371 5367 5362 5354 5346 5338 5331 5323 5316 5306 5296 5283 5271 5257 5240 5220 5204 5190 5179 5171 5164 5155 5146 5139 5137 5137 5137 5138 5142 5146 5153 5166 5182 5196 5207 5223 5246 5264 5277
5372 5367 5363 5359 5354 5350 5346 5339 5332 5324 5317 5310 5301 5292 5283 5272 5256 5240 5222 5207 5193 5182 5173 5167 5160 5152 5145 5139 5136 5136 5137 5136 5138 5141 5147 5160 5175 5188 5202 5220 5241 5255 5269
5355 5349 5344 5340 5336 5333 5330 5324 5316 5310 5304 5297 5286 5277 5268 5256 5241 5226 5209 5195 5183 5175 5168 5161 5155 5148 5143 5138 5136 5136 5137 5136 5135 5138 5145 5157 5171 5183 5201 5219 5235 5251 5268
5338 5332 5327 5323 5319 5317 5313 5308 5302 5297 5291 5284 5274 5264 5254 5241 5227 5213 5198 5185 5176 5169 5163 5156 5151 5146 5142 5138 5136 5135 5135 5135 5135 5138 5145 5157 5167 5182 5202 5218 5232 5247 5264
5319 5315 5312 5307 5304 5301 5299 5294 5288 5282 5276 5269 5261 5251 5242 5228 5214 5201 5188 5178 5168 5162 5157 5152 5148 5144 5142 5139 5137 5134 5133 5134 5136 5140 5146 5157 5168 5183 5203 5216 5230 5245 5262
5300 5297 5295 5292 5290 5287 5285 5282 5278 5272 5265 5257 5248 5239 5227 5214 5202 5190 5179 5171 5163 5158 5152 5147 5144 5142 5141 5139 5137 5135 5133 5133 5138 5143 5149 5156 5167 5184 5203 5217 5228 5244 5261
5281 5280 5279 5278 5277 5275 5273 5271 5266 5261 5256 5249 5241 5230 5217 5205 5193 5181 5171 5164 5158 5152 5147 5143 5141 5139 5138 5138 5136 5136 5134 5135 5137 5142 5148 5156 5169 5186 5203 5215 5228 5244 5260
5265 5265 5265 5264 5263 5262 5261 5258 5253 5249 5244 5238 5229 5218 5207 5195 5184 5173 5166 5159 5153 5148 5143 5139 5137 5136 5135 5135 5136 5136 5136 5138 5139 5142 5147 5157 5170 5186 5200 5213 5227 5242 5258
5251 5252 5253 5252 5251 5251 5249 5246 5242 5237 5232 5225 5216 5206 5195 5184 5173 5165 5159 5153 5147 5144 5139 5135 5132 5132 5132 5133 5135 5136 5138 5141 5143 5146 5153 5161 5172 5186 5198 5210 5223 5237 5252
5239 5240 5240 5240 5241 5240 5240 5236 5231 5226 5221 5214 5204 5195 5186 5176 5166 5159 5152 5147 5142 5138 5135 5131 5128 5128 5128 5129 5131 5134 5137 5140 5142 5147 5154 5162 5170 5183 5195 5208 5222 5235 5247
5229 5230 5230 5231 5232 5231 5229 5225 5221 5216 5211 5203 5194 5187 5179 5170 5161 5154 5148 5142 5137 5133 5130 5127 5125 5124 5124 5125 5127 5129 5132 5135 5139 5144 5151 5160 5170 5182 5193 5206 5220 5232 5241
5220 5221 5222 5222 5222 5220 5217 5214 5211 5207 5200 5192 5186 5179 5172 5164 5156 5148 5143 5138 5133 5129 5125 5123 5120 5119 5119 5120 5122 5125 5127 5131 5135 5141 5149 5158 5169 5180 5191 5203 5213 5224 5234
5211 5212 5213 5213 5211 5209 5207 5204 5200 5195 5189 5182 5176 5169 5163 5157 5150 5143 5138 5134 5130 5125 5122 5119 5117 5115 5115 5116 5117 5120 5123 5126 5131 5137 5146 5155 5165 5175 5185 5196 5205 5215 5225